Weather History for KTQE - December, 2012

Change the Weather History Date:

Friday, December 14, 2012

  Actual Average Record
Temperature  
Mean Temperature 35 °F -  
Max Temperature 54 °F 34 °F 59 °F (2006)
Min Temperature 16 °F 15 °F -13 °F (1985)
Degree Days  
Heating Degree Days 30    
Moisture  
Dew Point 25 °F    
Average Humidity 64    
Maximum Humidity 81    
Minimum Humidity 41    
Precipitation  
Precipitation 0.01 in - - ()
Sea Level Pressure  
Sea Level Pressure 29.87 in    
Wind  
Wind Speed 8 mph (SE)    
Max Wind Speed 20 mph    
Max Gust Speed 28 mph    
Visibility 7 miles    
Events Rain    
Averages and records for this station are not official NWS values.
T = Trace of Precipitation, MM = Missing Value Source: NWS Daily Summary

Daily Weather History Graph

Daily Weather History Graph

Search for Another Location

Airport or City:

Trip Planner

Search our weather history database for the weather conditions in past years. The results will help you decide how hot, cold, wet, or windy it might be!

Date:

Astronomy

Dec. 14, 2012 Rise Set
Actual Time 7:44 AM CST 4:54 PM CST
Civil Twilight 7:13 AM CST 5:26 PM CST
Nautical Twilight 6:38 AM CST 6:01 PM CST
Astronomical Twilight 6:04 AM CST 6:35 PM CST
Moon 8:49 AM CST (12/14) 6:49 PM CST (12/14)
Length of Visible Light 10h 13m
Length of Day
9h 10m
Waxing Crescent, 3% of the Moon is Illuminated
Dec 14
Waxing Crescent
Dec 19
First Quarter
Dec 28
Full
Jan 4
Last Quarter
Jan 11
New

Hourly Weather History & Observations

Time (CST) Temp. Windchill Dew Point Humidity Pressure Visibility Wind Dir Wind Speed Gust Speed Precip Events Conditions
12:54 AM 19.9 °F - 10.9 °F 68% 30.08 in 6.0 mi North - - N/A   Haze
1:54 AM 19.9 °F 10.1 °F 12.0 °F 71% 30.06 in 5.0 mi North 8.1 mph - N/A   Haze
2:54 AM 19.9 °F 11.1 °F 12.9 °F 74% 30.06 in 5.0 mi North 6.9 mph - N/A   Haze
3:54 AM 19.0 °F 11.1 °F 12.9 °F 77% 30.04 in 5.0 mi North 5.8 mph - N/A   Haze
4:54 AM 18.0 °F 7.7 °F 12.0 °F 78% 30.04 in 5.0 mi NNW 8.1 mph - N/A   Haze
5:54 AM 19.0 °F - 12.9 °F 77% 30.02 in 6.0 mi Calm Calm - N/A   Haze
6:54 AM 18.0 °F 12.7 °F 12.9 °F 81% 30.02 in 5.0 mi NW 3.5 mph - N/A   Haze
7:54 AM 16.0 °F 10.4 °F 10.0 °F 77% 30.00 in 5.0 mi South 3.5 mph - N/A   Haze
8:54 AM 24.1 °F - 16.0 °F 71% 29.99 in 4.0 mi Calm Calm - N/A   Haze
9:54 AM 30.9 °F 27.5 °F 21.0 °F 67% 29.99 in 6.0 mi SSE 3.5 mph - N/A   Haze
10:54 AM 41.0 °F 34.7 °F 25.0 °F 53% 29.95 in 7.0 mi SSE 10.4 mph - N/A   Clear
11:54 AM 46.9 °F - 28.0 °F 48% 29.90 in 7.0 mi SSE 13.8 mph - N/A   Clear
12:54 PM 52.0 °F - 30.0 °F 43% 29.86 in 9.0 mi SSE 12.7 mph - N/A   Clear
1:54 PM 54.0 °F - 30.9 °F 41% 29.81 in 9.0 mi SSE 15.0 mph 24.2 mph N/A   Clear
2:54 PM 54.0 °F - 30.9 °F 41% 29.78 in 7.0 mi SE 15.0 mph - N/A   Clear
4:54 PM 50.0 °F - 33.1 °F 52% 29.76 in 8.0 mi SE 11.5 mph - N/A   Clear
6:54 PM 52.0 °F - 34.0 °F 50% 29.75 in 10.0 mi SSE 19.6 mph 27.6 mph N/A   Overcast
7:54 PM 50.0 °F - 33.1 °F 52% 29.74 in 10.0 mi SSE 13.8 mph - N/A   Clear
8:54 PM 48.9 °F - 33.1 °F 54% 29.71 in 10.0 mi SE 12.7 mph - N/A   Mostly Cloudy
9:54 PM 46.9 °F - 37.0 °F 68% 29.69 in 8.0 mi SSE 11.5 mph - 0.01 in Rain Light Rain
10:11 PM 46.4 °F 41.5 °F 37.4 °F 71% 29.66 in 10.0 mi SE 10.4 mph - 0.00 in   Overcast
10:54 PM 46.9 °F - 39.0 °F 74% 29.61 in 9.0 mi SE 12.7 mph - 0.00 in Rain Light Rain
11:54 PM 46.9 °F - 39.9 °F 77% 29.58 in 7.0 mi SSE 9.2 mph - 0.00 in   Overcast